Wind_Speed
12 10 12 13 11 10 10 12 13 13 13 13 15 16 16 18 18 16 14 14 12 14 19 21 23 21 20 23 25 24 21 25 37 43 45 47 45 44 44 43 41 41 42 43 42 39 40 43 42 42 42 37 33 35 34 31 30 26 22 20 20 21 24 28 29 28 29 29 26 24 22 20 18 16 15 16 18 19 20 19 17 17 18 18 18 17
13 11 13 12 11 11 11 12 13 13 13 14 15 17 17 19 20 18 16 15 12 14 19 20 22 23 21 22 22 23 24 28 36 41 45 48 48 47 48 47 44 43 43 44 44 40 40 43 45 45 43 38 32 33 33 31 30 27 24 23 22 22 24 27 30 29 29 28 25 22 20 18 17 15 15 17 19 20 20 20 18 18 18 18 18 17
12 12 12 10 10 12 12 13 14 14 14 15 16 16 18 17 17 17 17 17 15 17 19 19 22 23 23 25 23 23 26 30 32 34 37 40 43 45 47 49 48 46 46 47 46 41 42 44 44 46 44 37 33 34 35 33 30 27 26 26 25 24 26 28 30 30 29 28 24 21 19 18 16 14 14 17 19 20 21 20 19 19 19 19 18 18
11 9 8 10 11 11 11 13 13 14 15 16 16 17 18 16 15 16 13 11 12 17 19 18 21 24 23 25 26 24 26 28 27 28 29 32 39 43 44 46 47 48 48 49 47 41 42 45 44 46 45 39 35 35 40 39 31 26 25 27 28 26 27 30 31 31 29 27 24 22 20 18 16 14 15 18 20 20 21 21 20 20 19 19 18 18
15 11 10 13 13 10 11 12 12 14 15 16 17 18 18 15 13 14 12 10 11 15 19 19 22 25 26 27 28 26 27 29 29 29 30 33 42 48 47 45 44 46 48 50 50 44 43 46 46 45 44 43 40 37 43 44 35 28 25 26 28 28 29 31 32 32 30 28 26 23 21 18 15 14 15 17 19 20 21 21 21 20 19 19 18 18
16 14 14 14 13 12 13 14 14 14 15 16 16 17 17 15 14 14 13 14 15 17 18 20 19 21 25 29 30 28 27 29 31 32 35 37 43 49 51 50 47 47 49 50 50 48 46 47 46 44 43 45 43 38 42 43 38 33 27 25 28 29 30 31 33 33 30 28 26 22 19 15 12 11 12 14 16 18 20 21 21 19 19 20 19 18
16 15 16 14 13 14 15 16 15 14 15 16 14 13 13 13 15 16 15 15 16 15 13 16 16 15 19 23 25 26 27 29 30 30 33 34 36 42 49 52 50 49 50 50 50 49 48 48 47 45 44 44 42 39 42 44 40 35 29 26 27 28 30 31 33 32 30 28 24 20 17 14 11 10 11 13 15 18 20 21 21 20 20 20 19 19
13 13 14 12 12 14 16 17 16 15 16 15 10 9 10 12 14 14 15 16 17 16 12 13 16 16 18 20 17 18 23 28 32 31 31 31 30 34 42 49 51 50 49 48 49 50 48 48 49 47 44 44 41 38 42 45 42 37 31 27 27 29 31 32 33 32 30 27 22 20 17 14 12 11 13 14 16 19 22 22 21 20 21 20 19 20
9 10 12 12 13 15 17 16 14 15 17 15 10 9 10 12 14 13 15 17 16 17 16 17 18 15 18 22 19 17 19 22 28 32 32 31 29 28 32 41 48 49 47 46 46 47 48 48 50 49 45 44 41 38 40 44 44 39 33 30 29 30 32 32 33 33 30 27 23 20 17 13 12 12 14 16 18 21 22 22 22 22 22 21 21 20
16 15 15 16 17 19 18 16 15 16 17 15 12 12 12 12 14 15 16 18 17 16 17 19 19 14 15 22 23 21 23 24 24 29 31 31 30 27 28 34 41 46 47 46 44 44 46 46 47 48 46 45 43 39 39 43 46 41 35 32 31 31 32 33 34 34 32 28 25 21 16 13 12 12 14 17 19 22 23 24 23 23 23 22 21 20
21 20 21 22 21 21 19 17 18 19 18 16 15 14 15 15 17 17 18 18 15 15 19 21 22 18 14 18 23 22 23 25 26 27 28 28 28 26 26 31 36 41 46 48 45 43 43 43 44 45 46 46 45 42 41 44 48 45 40 36 33 32 33 33 35 35 34 30 26 21 16 13 11 12 14 17 20 22 24 25 24 23 23 23 22 20
18 19 23 24 21 18 18 18 18 19 19 18 18 17 17 17 17 18 20 19 12 12 19 21 23 23 17 17 21 21 20 21 24 26 24 23 25 23 23 26 29 31 38 45 47 46 44 41 41 44 45 46 47 46 43 45 48 47 44 40 36 36 35 34 36 36 34 32 27 22 17 13 12 12 14 18 22 23 25 25 24 23 23 22 21 20
18 18 19 20 19 16 16 18 18 18 20 19 19 19 15 13 12 13 13 13 12 14 18 19 20 22 23 23 23 22 21 19 20 24 24 23 24 21 20 22 24 25 30 38 43 47 47 43 41 44 44 45 48 49 46 45 46 45 44 41 38 38 37 34 36 37 36 33 28 23 18 14 12 12 14 19 23 24 25 25 25 24 23 22 20 20
18 13 10 11 13 13 13 17 17 16 18 20 21 21 16 9 8 9 10 9 12 16 19 20 19 18 22 25 26 26 26 22 20 21 23 25 25 22 20 20 20 22 27 34 39 44 49 46 42 44 45 44 46 49 48 46 46 45 43 41 38 38 37 35 35 37 37 34 28 24 20 15 13 14 15 19 22 23 25 26 26 24 23 21 20 20
14 10 6 7 8 10 11 15 16 14 15 20 21 21 20 18 12 9 9 9 10 15 20 21 17 16 19 20 21 25 29 29 27 25 24 24 24 24 24 23 21 21 25 31 35 41 48 46 41 43 45 43 44 47 48 47 46 45 44 41 39 38 39 38 37 37 37 35 30 26 22 17 15 15 15 18 22 23 25 26 26 25 24 23 22 21
14 13 10 11 12 11 10 11 13 14 15 17 19 22 24 24 20 15 14 14 12 12 15 18 17 19 21 20 20 21 23 27 28 28 29 28 26 25 27 28 27 25 26 29 31 35 42 42 40 43 45 43 44 45 46 47 47 46 45 42 38 37 39 40 38 37 37 36 32 27 23 19 17 16 16 18 20 23 25 26 26 26 25 24 24 23
13 13 11 13 16 15 13 12 13 15 14 12 16 23 24 21 19 19 17 16 14 10 12 17 18 20 20 20 22 21 20 22 24 25 28 29 29 27 26 30 32 28 27 29 30 31 35 37 38 43 44 43 45 45 44 44 45 46 45 42 38 36 38 39 38 38 38 37 34 29 25 21 18 17 16 17 19 22 25 26 27 27 27 26 26 25
15 20 19 18 20 19 15 14 16 19 18 15 16 18 16 14 15 17 13 10 11 10 12 18 20 20 19 18 21 24 24 24 23 23 25 26 28 27 28 31 32 31 28 28 30 31 32 35 39 44 45 43 44 45 45 43 42 45 46 43 39 37 37 38 37 38 38 37 35 32 27 22 19 17 17 18 19 22 25 27 28 28 28 27 27 26
16 20 21 18 18 17 15 16 18 21 22 22 19 14 12 11 13 15 12 8 9 8 9 17 21 22 22 20 18 20 25 26 23 22 23 23 23 25 27 30 31 32 30 28 28 30 32 34 37 42 45 44 43 43 45 44 42 44 47 45 41 37 36 37 37 38 39 39 36 33 28 23 20 18 18 19 20 21 24 27 28 28 28 28 27 27
18 16 16 14 12 12 15 17 20 21 20 21 21 18 17 15 13 14 15 12 11 9 8 13 16 17 21 24 22 18 19 23 23 20 20 21 21 22 22 25 29 33 33 30 28 28 30 32 33 37 41 43 43 42 43 44 43 44 46 46 43 39 38 39 39 40 40 39 36 33 29 25 21 19 19 20 21 21 24 27 29 29 28 28 28 28
22 17 16 17 13 12 16 19 21 20 16 19 22 22 21 19 15 14 16 17 15 9 7 8 10 15 21 21 22 21 16 17 20 19 18 17 17 18 20 22 26 31 33 33 30 27 28 31 31 33 36 40 42 42 42 43 43 43 45 46 45 42 41 41 42 42 41 40 37 33 30 26 23 21 21 21 22 22 25 28 29 29 29 28 29 29
22 20 20 19 18 20 21 19 19 19 17 19 22 24 23 22 19 13 11 17 19 14 11 8 8 16 20 17 19 23 19 14 17 18 18 17 16 16 18 21 23 26 29 32 33 29 27 29 31 31 33 36 40 42 43 44 43 43 45 47 46 44 44 43 43 42 40 40 38 35 31 28 26 23 22 22 23 23 25 29 30 30 29 29 29 30
20 22 22 21 24 27 24 19 22 23 21 21 22 23 23 22 23 18 12 13 18 18 18 14 11 15 18 17 15 17 18 16 16 18 17 16 17 17 17 19 20 22 24 28 32 32 29 28 30 31 32 33 37 40 42 44 44 44 44 46 46 46 46 45 44 42 40 40 40 37 33 30 28 25 23 24 24 24 26 30 31 30 29 29 29 29
14 17 19 20 25 26 20 18 24 25 23 24 26 25 23 23 24 23 18 15 14 16 16 12 12 15 16 15 8 11 17 20 19 19 18 14 15 18 18 17 18 21 23 26 29 31 31 29 29 30 31 32 33 36 40 43 44 44 44 45 46 46 47 46 45 43 42 41 41 39 35 32 30 27 26 25 25 25 27 30 32 31 30 29 29 29
12 13 14 15 16 15 11 10 13 17 18 22 24 24 23 24 24 23 22 18 14 17 16 10 11 15 14 13 11 12 16 22 23 22 20 15 12 15 16 14 15 17 20 23 26 29 31 31 29 30 31 32 32 33 36 41 43 44 43 44 45 46 46 47 46 45 43 42 42 41 37 34 32 30 28 27 27 27 27 30 32 32 30 29 29 29
19 17 16 14 10 9 9 7 7 9 11 14 19 23 24 25 25 23 22 19 14 16 19 17 17 16 11 10 12 11 10 15 19 20 17 13 9 9 10 10 10 12 14 17 20 24 28 31 31 30 30 31 32 32 33 37 41 43 42 43 44 45 45 46 46 45 44 43 43 42 40 37 35 33 31 29 29 28 28 30 32 32 31 30 30 29
21 22 20 19 18 17 20 21 20 19 15 12 14 19 23 26 28 25 24 23 17 14 19 23 21 18 14 11 11 13 12 9 10 13 12 10 10 8 7 7 8 10 13 14 15 17 22 28 30 31 31 30 31 32 33 34 38 41 42 42 43 44 45 46 46 45 44 44 43 42 42 41 38 35 33 31 30 30 28 30 33 33 31 30 30 30
16 21 20 19 21 23 26 28 25 23 22 17 13 15 20 24 27 30 29 26 18 14 18 20 18 20 21 16 13 14 15 12 11 9 9 11 13 13 11 9 8 9 12 14 15 15 17 23 28 30 31 31 31 32 33 34 35 38 42 43 42 42 44 46 45 45 45 45 44 44 44 43 40 38 35 32 32 31 29 31 33 33 32 31 30 30
12 18 17 17 22 24 25 23 20 20 21 18 16 16 17 19 25 33 32 26 22 21 19 15 14 19 22 20 19 17 16 18 16 11 9 11 13 13 12 11 10 10 10 12 16 18 18 20 24 28 31 33 33 32 33 34 34 36 39 42 43 42 44 45 46 46 46 46 46 46 46 44 42 41 38 34 33 32 30 31 34 34 33 32 31 30
10 14 15 17 23 25 21 16 14 15 16 15 15 16 16 16 21 29 31 26 26 28 25 19 18 20 19 18 20 19 17 19 17 11 10 13 12 11 12 12 12 13 12 11 14 19 21 21 23 26 29 32 34 34 33 33 34 35 36 39 42 43 43 44 46 47 48 48 48 48 47 46 44 43 40 36 34 32 31 33 34 35 34 33 31 31
11 14 16 17 21 21 15 11 11 11 11 11 13 13 14 15 17 24 29 27 26 28 28 25 25 27 25 21 20 20 20 21 19 15 14 14 12 13 13 14 14 15 17 16 15 18 21 22 23 26 29 32 34 35 35 34 34 34 34 35 38 41 42 43 44 45 45 47 48 48 48 47 46 45 42 38 35 34 34 34 35 36 35 33 32 31
15 18 20 15 16 16 14 13 11 8 9 11 11 12 14 15 17 22 26 27 27 27 26 25 28 31 27 21 21 22 23 25 24 22 19 17 16 16 16 16 16 17 18 19 19 19 21 23 25 27 29 32 34 36 37 37 36 35 36 35 35 37 40 42 43 43 43 44 45 46 47 47 47 46 44 40 37 36 36 35 35 36 36 35 33 32
17 20 21 16 13 14 14 14 10 6 7 7 6 9 12 15 18 20 23 25 27 26 25 26 29 26 19 14 16 18 19 22 23 22 20 19 19 19 18 18 18 19 20 21 21 22 22 23 26 29 30 32 34 37 39 40 39 38 38 37 36 36 38 40 42 43 44 44 44 44 46 47 48 47 45 42 39 39 38 36 36 37 38 36 33 32
20 20 22 18 13 12 14 13 7 4 5 5 6 8 9 14 17 21 24 25 25 27 27 29 29 24 18 15 15 15 16 18 19 20 22 23 21 20 19 19 19 20 23 23 22 24 25 25 27 31 34 34 34 35 37 39 41 41 40 38 37 37 38 39 41 43 44 45 45 44 45 45 46 47 45 43 42 41 39 37 37 38 39 36 34 32
24 21 20 18 14 14 15 9 3 3 4 6 11 14 8 10 14 20 24 24 25 27 28 30 30 27 24 22 20 20 21 20 20 24 26 24 21 20 20 20 21 23 25 26 26 27 28 29 29 31 35 38 37 36 36 38 39 41 42 42 40 39 39 40 41 43 45 46 46 45 45 45 46 47 46 45 44 43 40 39 38 39 40 37 34 33
26 23 19 17 14 14 14 6 3 6 6 6 13 22 15 7 7 14 21 23 24 26 27 29 31 27 25 25 24 24 24 23 24 26 24 21 20 21 22 22 24 26 27 28 29 30 30 31 31 31 33 38 40 39 39 39 40 42 43 42 42 41 41 41 42 45 47 48 47 47 46 46 47 49 48 47 46 44 42 40 38 39 40 38 35 34
24 22 17 15 14 16 17 12 9 9 7 7 19 25 17 11 7 9 16 17 17 20 23 27 28 26 25 24 24 23 23 24 26 23 19 17 20 21 23 24 27 28 29 30 31 31 31 31 31 32 34 37 40 41 41 41 43 44 44 43 42 42 43 43 44 45 47 48 49 48 47 47 48 49 48 48 48 46 43 40 38 39 40 39 37 35
23 22 18 15 18 22 21 15 9 5 3 14 28 23 10 6 5 5 12 15 12 13 17 21 22 23 23 22 22 21 20 22 24 20 15 18 21 20 22 25 27 28 30 32 32 31 31 31 32 33 35 38 40 41 40 40 42 44 46 46 45 44 44 46 46 45 45 48 49 48 47 48 49 49 48 49 48 46 43 40 38 38 39 39 38 35
24 22 18 17 21 25 21 14 7 2 8 26 33 21 8 3 3 3 7 11 11 11 13 15 18 19 19 18 17 17 18 21 23 20 16 19 20 19 21 25 27 29 32 34 34 33 32 31 31 32 35 38 39 39 39 39 41 43 46 49 49 46 45 47 48 46 45 46 48 48 48 49 49 49 48 49 49 46 43 41 39 38 38 40 39 36
31 27 21 21 26 26 22 16 7 3 16 33 31 21 15 4 6 4 3 7 10 12 15 16 16 17 17 17 17 17 19 21 21 19 18 18 18 19 21 25 28 32 35 36 35 34 34 32 31 31 34 36 37 37 38 38 40 42 45 48 49 49 47 47 48 47 46 46 46 48 49 49 49 49 49 50 48 46 44 41 38 37 38 40 40 37
33 30 24 25 27 24 22 20 10 8 24 37 29 23 20 6 5 3 6 12 17 15 14 17 18 18 18 19 20 20 20 21 20 20 18 17 19 19 20 24 29 34 37 36 34 34 35 34 33 33 34 36 37 38 38 39 40 42 44 46 48 50 49 48 47 46 46 46 47 49 50 49 49 49 49 49 48 46 45 42 39 37 39 41 41 39
32 30 25 27 28 24 25 23 12 11 30 41 34 29 25 12 8 14 19 20 22 18 11 11 14 17 17 19 21 20 19 19 18 18 17 17 18 19 20 23 28 34 37 35 33 35 36 34 33 34 35 36 37 38 38 40 41 42 44 46 47 48 47 45 45 45 46 47 48 49 50 50 49 48 47 47 47 47 45 42 39 37 39 41 41 39
28 26 23 28 29 22 23 21 11 14 33 42 38 36 32 24 22 23 21 18 18 14 11 9 10 12 14 16 17 15 14 14 14 14 15 15 15 15 17 21 26 31 37 37 37 37 36 34 33 34 35 36 38 38 38 39 40 41 43 44 44 44 43 42 43 44 45 47 49 50 50 49 48 46 45 46 47 46 44 42 40 38 39 41 42 41
25 24 20 27 28 20 18 20 19 24 35 38 35 34 33 31 30 27 26 27 26 20 12 8 10 9 9 11 11 10 10 9 10 11 11 11 11 11 14 19 23 26 31 37 40 39 36 36 36 36 37 38 38 38 38 38 39 41 42 41 41 42 43 42 42 42 43 45 47 48 47 46 45 44 44 45 45 44 43 42 40 39 40 42 42 41
26 25 19 23 26 20 18 25 29 31 34 34 33 31 29 29 29 28 28 31 33 32 22 6 5 6 6 6 6 7 8 8 9 9 8 7 9 10 12 15 17 18 18 28 33 34 33 34 35 35 37 38 37 36 36 36 37 37 38 38 39 41 41 41 41 40 42 44 45 45 45 44 43 43 43 43 43 43 43 42 40 39 40 41 41 41
26 26 20 21 24 22 23 28 30 29 31 33 34 33 30 29 29 30 33 35 36 38 36 26 15 9 6 4 4 5 9 10 8 5 4 5 7 9 9 10 11 11 14 24 27 29 31 31 32 32 34 36 36 34 32 31 32 32 33 35 38 39 39 40 41 42 43 43 43 43 43 42 42 44 44 41 39 39 40 40 40 40 40 40 40 41
27 24 20 20 22 22 24 27 29 29 31 33 35 37 35 32 31 32 34 35 36 38 40 38 31 25 18 11 6 4 6 7 5 3 4 5 4 7 7 6 4 4 11 19 23 24 25 27 31 34 35 35 34 32 29 27 27 28 30 32 36 39 40 40 41 42 43 43 43 43 43 42 43 47 46 39 35 36 37 37 38 39 39 40 41 42
29 23 20 21 23 22 23 25 26 28 29 31 35 39 39 37 34 32 32 32 33 36 38 37 32 29 27 23 16 9 5 5 3 1 2 2 4 7 6 3 1 2 9 16 20 21 23 24 24 26 29 31 31 32 31 28 27 29 31 33 36 39 40 41 42 43 44 45 44 44 44 44 47 49 47 40 36 37 37 37 38 39 39 40 41 41
25 22 19 21 22 23 24 27 28 28 29 32 34 38 40 41 39 37 34 32 30 31 34 36 35 33 32 32 30 20 8 4 8 9 7 7 9 9 6 3 3 4 8 14 17 19 25 28 25 24 27 28 28 30 32 32 32 33 34 34 35 37 38 39 41 44 46 46 45 44 45 47 48 46 42 39 39 39 38 37 38 38 38 40 41 41
24 23 21 20 22 24 26 28 28 28 29 31 33 35 37 39 40 40 39 37 33 31 31 32 32 33 33 33 35 32 21 12 10 10 10 12 12 10 9 7 6 5 6 11 15 19 25 28 29 30 32 31 30 31 31 33 34 33 31 32 33 35 36 37 38 40 42 43 43 44 45 46 45 41 38 38 40 40 39 39 38 37 37 40 41 41
22 24 23 22 22 24 26 26 26 26 27 28 30 32 34 35 36 38 38 38 37 35 34 32 30 31 33 33 34 35 32 24 17 13 13 15 16 14 13 12 10 6 3 6 11 17 21 24 26 30 33 34 34 34 33 33 33 30 28 29 30 31 33 35 35 36 38 40 43 44 44 44 43 41 39 39 40 41 41 40 39 38 40 42 42 40
Wind_Direction
268 257 254 250 249 252 246 246 250 252 251 250 255 258 259 257 254 251 244 241 241 246 244 241 243 243 238 234 230 227 224 228 231 230 230 230 230 230 228 226 225 227 230 229 227 222 219 219 221 227 232 234 227 219 221 219 217 222 225 226 226 225 224 215 207 204 204 202 200 199 199 200 203 208 216 225 232 233 232 230 226 221 215 212 215 218
271 259 251 254 257 254 251 252 250 249 252 251 252 254 255 254 253 253 249 243 240 248 251 246 246 246 240 237 233 229 229 231 233 231 230 230 231 232 231 229 227 226 228 229 228 224 221 219 218 225 233 237 229 216 215 215 215 223 227 227 226 224 225 221 211 207 207 204 200 197 196 196 200 205 214 225 233 234 233 230 226 222 217 214 214 218
267 261 255 254 253 252 249 251 251 250 251 250 251 252 253 253 255 255 248 243 240 247 253 248 250 250 243 242 240 236 236 234 234 232 231 231 231 233 232 231 229 227 227 228 228 225 224 222 219 221 229 234 227 219 217 213 213 224 229 227 224 221 223 221 213 209 208 204 198 194 192 194 199 203 212 223 231 233 232 231 227 224 221 216 215 219
263 264 257 250 251 256 252 250 251 250 247 246 246 248 250 250 254 256 244 237 240 243 251 253 255 254 248 245 242 238 237 233 232 231 230 229 228 229 230 230 231 229 227 227 228 225 223 225 221 219 223 225 221 222 223 218 216 225 229 227 222 219 221 220 215 212 208 202 196 192 192 195 200 204 210 221 229 231 231 230 227 225 223 219 216 218
264 268 266 264 263 255 248 251 247 248 252 247 243 245 252 254 254 257 253 259 263 254 252 253 256 255 248 245 243 240 240 237 233 230 228 228 227 227 227 227 229 229 228 227 227 226 224 226 224 220 221 221 218 220 221 219 220 226 231 230 221 217 220 218 216 215 209 200 194 191 192 195 201 205 211 222 229 231 231 230 229 227 225 222 218 218
264 265 260 261 261 248 245 250 246 248 255 255 251 248 252 259 259 258 262 267 266 261 250 239 245 252 245 244 243 238 237 237 235 233 231 231 231 229 228 228 228 228 228 227 227 227 226 227 227 225 223 222 221 219 217 219 221 225 232 230 220 217 219 217 216 214 208 199 194 191 193 198 204 209 215 226 230 231 231 231 230 228 226 224 219 219
262 260 260 257 252 247 245 247 245 243 251 260 258 243 243 253 254 252 254 255 252 258 253 227 234 255 247 241 238 233 233 232 233 234 233 233 233 232 230 229 228 229 228 226 226 226 227 228 227 227 225 224 224 221 219 220 222 226 231 227 220 218 219 217 215 213 205 198 195 193 195 200 204 209 214 221 226 229 229 228 228 227 227 226 221 220
256 254 264 261 247 243 243 246 243 233 241 256 252 236 243 249 250 248 245 246 248 256 258 229 234 258 255 241 231 226 228 229 229 231 232 232 232 232 232 230 228 229 229 227 226 225 226 227 227 226 225 224 226 222 219 219 223 230 231 225 221 219 219 217 214 209 202 198 197 195 197 201 205 210 211 214 222 227 227 225 224 225 226 225 222 222
263 259 263 258 251 248 244 244 240 228 235 249 251 250 254 250 249 249 244 245 247 252 252 236 230 248 253 243 234 228 228 228 228 229 231 231 230 230 232 232 229 228 227 226 227 226 226 226 226 226 225 224 225 222 218 217 220 228 228 223 223 221 218 216 212 207 201 198 199 198 199 206 211 214 212 213 220 225 224 223 222 223 224 223 223 224
270 270 266 258 252 250 250 248 242 234 236 246 256 256 253 250 248 245 245 246 245 244 246 238 229 236 249 242 235 230 229 229 228 229 229 229 230 229 231 233 230 227 225 223 223 225 226 226 226 226 225 224 224 221 217 213 214 220 223 223 223 221 218 214 210 205 202 200 200 200 203 210 215 217 217 221 224 222 219 221 223 223 222 222 223 225
272 271 265 262 257 252 254 254 245 240 239 242 249 253 252 251 247 243 241 240 244 244 241 239 233 236 249 242 234 230 229 229 229 230 229 228 227 227 229 232 230 228 226 223 221 221 223 224 224 224 224 224 223 220 216 211 211 215 220 223 223 221 218 213 208 205 204 204 202 202 206 213 217 220 226 230 228 221 217 219 222 222 222 222 223 226
280 270 262 268 272 261 251 252 249 242 239 239 240 247 253 249 243 243 239 233 238 245 238 234 232 235 243 243 237 234 232 231 230 229 228 224 220 221 229 232 229 228 227 224 221 220 221 221 221 221 222 223 222 220 216 211 212 213 216 220 222 220 218 213 208 205 206 207 204 205 209 213 219 227 234 233 227 223 220 220 222 222 222 223 223 226
288 275 263 266 269 259 245 248 251 241 234 234 233 237 246 249 241 242 240 231 235 243 239 234 232 235 241 243 241 239 237 234 232 230 227 223 220 223 231 229 224 226 226 224 222 220 220 220 219 219 219 221 222 221 218 212 212 213 213 217 220 219 218 215 209 207 208 209 206 207 211 214 224 235 237 232 227 223 220 221 222 223 223 223 224 226
295 284 261 248 249 252 241 237 244 240 230 227 225 227 233 245 247 242 244 241 239 243 242 236 235 242 245 243 242 241 239 234 230 228 227 227 228 228 229 223 220 222 223 224 222 220 220 219 219 219 217 219 221 222 220 215 213 213 213 216 216 215 218 219 213 209 209 210 208 209 212 215 226 238 238 232 228 224 220 220 222 222 223 223 223 224
296 294 264 235 245 258 250 237 241 247 240 231 226 229 236 243 247 249 253 255 255 256 248 236 230 235 240 241 241 241 240 237 235 233 233 234 233 230 226 220 217 215 216 221 223 222 222 219 219 220 217 218 220 222 222 218 215 214 212 214 213 213 218 220 215 211 210 210 210 211 213 217 227 238 239 235 231 225 222 221 221 221 222 222 223 224
291 291 276 259 258 258 254 244 239 244 248 240 230 231 237 240 246 257 267 268 273 276 259 244 239 237 239 245 245 242 238 234 234 235 238 238 234 232 230 224 218 209 206 212 219 223 224 221 220 221 219 218 219 221 223 220 217 214 212 213 213 214 218 219 216 212 210 211 213 213 214 219 227 235 240 239 234 227 222 221 220 222 223 223 224 225
285 283 281 266 265 267 262 248 235 232 240 242 232 233 236 240 248 257 263 262 261 266 253 246 249 245 244 250 246 238 231 229 228 230 234 235 232 231 232 228 220 209 202 206 212 218 222 221 221 222 221 219 219 220 221 221 218 214 213 214 213 213 217 218 216 214 211 212 214 214 215 219 227 234 242 245 241 229 222 220 220 222 224 224 225 227
275 277 280 269 267 274 267 248 239 233 235 242 240 238 240 242 247 250 256 256 249 254 250 243 246 246 244 248 244 234 228 229 228 225 227 231 229 227 229 228 221 212 206 204 207 214 219 222 222 221 222 220 220 220 221 221 219 215 215 216 213 211 213 214 214 214 213 213 215 216 216 219 226 234 242 248 245 232 223 221 221 224 226 226 226 228
274 281 284 272 259 262 255 243 245 239 231 235 243 246 243 239 239 236 237 247 243 249 256 246 245 246 245 247 245 232 224 224 224 221 222 224 223 222 226 228 222 216 211 205 205 210 216 221 223 223 223 221 220 220 220 222 220 216 217 219 215 210 209 209 210 213 213 214 215 216 215 217 225 233 240 247 247 236 225 222 223 225 228 229 229 230
274 278 287 281 256 251 249 237 241 243 231 229 239 245 240 240 246 237 231 241 248 249 255 254 250 244 243 245 242 233 220 215 214 213 215 217 217 218 220 223 220 218 216 211 206 207 212 218 221 222 224 224 222 220 219 221 221 217 217 219 217 212 208 207 209 212 214 215 216 216 215 216 223 232 239 245 248 240 228 224 224 225 228 230 230 232
278 262 266 277 266 256 251 233 235 245 235 224 228 233 230 228 235 243 239 239 244 253 254 254 258 247 242 241 236 229 221 211 206 202 201 203 205 207 211 217 219 218 219 218 212 207 209 214 217 219 222 224 224 221 219 219 220 219 218 219 218 214 208 207 209 212 214 215 215 217 216 217 223 231 238 244 247 241 230 224 224 226 229 230 231 232
286 262 257 267 264 260 256 247 246 246 232 223 226 231 231 226 226 235 240 233 233 245 248 247 264 252 244 245 238 226 215 203 194 186 182 184 183 189 205 216 218 215 216 218 216 211 208 210 213 215 217 220 223 222 218 218 219 218 218 219 219 216 210 208 211 214 215 215 214 216 217 219 223 229 236 242 246 242 231 225 225 226 228 231 232 233
293 272 263 262 265 269 267 267 264 252 239 236 234 234 235 233 230 230 235 231 229 238 242 245 262 257 249 254 246 216 197 184 175 171 168 170 170 170 184 198 205 210 212 215 216 214 211 209 209 212 214 216 221 222 219 217 218 218 219 220 221 218 212 211 213 217 218 216 214 214 216 219 222 227 234 239 244 242 233 227 227 227 228 231 233 234
291 272 268 268 277 278 269 262 261 258 257 252 242 234 234 234 230 231 240 243 240 239 236 238 251 249 251 252 221 172 178 175 163 162 162 160 164 163 166 174 183 196 205 211 215 216 215 212 208 210 212 213 217 221 220 218 218 218 219 220 222 220 216 215 217 218 219 218 216 214 215 218 221 225 232 236 240 240 235 230 228 228 228 231 234 235
293 276 272 279 290 285 264 245 241 245 256 258 247 232 229 233 232 233 238 240 243 241 233 238 249 243 248 243 202 164 177 177 164 161 159 154 160 164 166 168 169 179 191 202 211 215 217 216 211 209 209 211 214 218 220 220 218 218 218 219 221 221 219 218 219 220 220 219 217 215 215 218 221 224 229 233 236 238 236 232 229 229 230 232 234 235
289 279 268 269 281 286 285 288 275 264 265 264 251 235 226 227 229 232 235 232 234 236 230 235 244 240 245 240 208 183 182 181 174 171 165 160 165 169 172 177 179 181 180 185 198 209 216 219 217 212 208 208 211 214 217 219 219 219 218 218 219 220 219 218 219 221 221 220 218 217 218 220 221 223 226 230 233 236 236 232 229 229 230 233 235 235
282 277 270 264 265 277 291 296 299 299 292 272 254 243 233 228 227 230 233 231 231 235 235 235 239 242 246 245 225 207 202 202 196 191 191 196 199 196 191 193 202 208 202 190 184 194 209 216 219 217 211 206 207 209 213 216 218 220 219 218 219 220 220 219 220 221 223 223 221 220 220 222 222 222 224 228 231 233 235 232 228 228 230 232 234 235
285 278 281 276 278 291 300 300 299 298 292 279 264 253 242 235 229 227 230 233 233 240 245 240 239 244 242 243 246 231 223 238 246 233 234 233 220 213 215 220 228 231 227 219 206 194 197 209 216 218 215 210 206 207 210 213 215 218 220 220 219 220 222 222 223 223 224 224 224 222 222 223 222 222 223 226 228 231 233 230 227 227 229 231 234 235
298 286 293 289 293 306 311 308 300 291 287 280 270 261 252 243 232 226 229 234 233 238 247 248 247 248 245 245 248 244 247 255 250 239 241 237 227 224 231 238 240 237 236 235 229 217 204 201 208 215 217 214 208 206 208 211 213 216 219 220 220 221 223 223 225 225 225 225 224 223 223 223 222 222 222 223 225 229 231 228 226 227 229 230 233 234
314 294 307 301 301 312 318 314 303 291 285 274 263 260 257 250 233 226 228 233 235 241 249 255 259 256 251 249 245 245 255 253 238 226 227 230 236 247 249 245 240 238 236 236 237 230 218 206 202 207 214 215 212 209 207 208 212 215 218 220 220 221 222 223 224 225 225 225 224 224 224 223 222 222 222 222 222 226 230 227 225 227 228 229 231 233
327 311 325 315 303 314 321 313 305 298 289 276 263 258 256 250 235 224 225 230 236 242 245 251 260 259 254 251 247 248 252 244 234 236 241 245 263 271 258 245 241 240 239 237 237 235 228 218 206 201 206 212 214 213 209 208 210 213 217 220 222 222 223 223 223 223 223 223 223 223 224 222 221 222 223 221 220 224 229 227 226 227 227 228 230 232
327 320 330 320 299 307 312 308 312 303 284 276 266 258 251 241 231 224 224 227 231 237 242 244 249 254 254 252 250 251 251 246 242 246 253 264 275 271 258 246 239 238 240 239 237 234 231 225 215 204 201 206 211 214 213 210 209 211 215 218 221 223 224 224 224 221 220 220 220 221 221 220 220 222 222 219 217 223 228 227 226 226 226 227 229 231
338 323 324 319 302 301 302 308 316 301 286 285 271 267 257 244 237 230 228 229 230 233 237 237 241 248 253 253 252 250 247 246 247 249 255 265 266 256 248 242 237 236 239 239 235 231 228 226 221 212 204 203 206 211 215 215 213 213 215 217 219 222 224 225 225 224 222 222 223 222 221 219 219 221 221 217 216 222 226 227 226 225 226 227 228 230
355 332 321 316 302 292 301 311 309 284 285 280 290 303 274 249 243 236 233 235 234 234 236 239 244 250 252 255 256 254 252 251 251 251 252 256 253 244 240 240 240 240 237 234 231 228 226 226 222 217 213 209 206 208 214 218 219 220 220 220 221 222 224 225 225 225 225 225 226 224 221 219 219 221 221 216 215 220 224 225 226 225 225 225 225 229
9 357 338 324 305 293 301 303 249 265 290 273 313 338 320 255 250 245 243 242 239 238 240 244 249 251 253 257 259 261 265 262 258 253 248 246 246 246 245 242 240 239 236 232 229 226 227 227 224 220 217 214 212 211 213 216 219 222 225 226 226 225 225 224 224 224 226 227 226 224 221 220 220 221 220 215 215 219 222 224 225 224 223 223 224 229
5 2 348 331 319 307 304 286 235 295 287 269 339 2 5 327 283 253 249 248 243 242 244 247 252 256 258 261 263 265 268 269 263 254 242 237 243 250 250 242 234 233 232 230 227 226 228 230 228 224 221 218 217 217 218 218 219 222 226 229 229 229 227 225 224 224 224 225 226 224 222 221 221 221 220 215 214 217 220 223 224 223 222 221 223 228
2 1 350 335 332 326 317 307 299 296 265 290 346 4 9 348 327 262 255 259 250 245 246 249 255 261 261 264 267 266 267 270 264 248 233 238 247 249 246 240 233 230 227 226 226 227 230 231 230 226 223 221 220 220 220 222 224 226 228 229 229 229 228 226 225 224 223 224 225 223 220 220 220 221 219 216 214 217 219 222 224 223 221 220 223 228
3 6 2 342 332 332 327 322 324 306 292 348 356 6 7 322 311 263 262 270 260 247 248 250 255 259 260 261 264 261 261 263 255 239 232 242 243 242 241 237 234 231 226 224 226 229 231 231 227 223 221 221 222 222 222 223 226 228 229 229 229 229 229 227 225 224 223 223 223 221 219 219 219 219 218 215 214 216 219 222 224 223 220 220 223 227
8 11 8 346 337 337 333 332 341 319 346 358 2 10 14 300 259 259 270 267 261 249 246 249 253 255 255 254 256 257 257 255 245 236 241 246 243 245 246 240 235 232 228 225 228 230 231 229 226 222 220 219 220 221 222 223 225 227 228 228 229 229 229 228 226 225 223 222 222 221 219 218 218 218 217 215 214 216 219 222 224 223 220 220 222 226
11 13 9 354 346 342 337 335 331 311 358 6 8 10 12 2 212 211 232 255 270 260 247 252 260 261 260 259 258 257 255 253 250 250 254 253 250 252 254 247 239 234 231 229 230 231 229 227 224 219 217 217 218 220 222 223 223 224 226 228 229 229 228 227 226 225 224 222 222 221 219 217 217 218 217 214 213 216 219 223 225 223 220 220 222 225
3 6 6 358 350 344 342 341 332 338 4 10 11 8 10 21 193 233 291 305 319 305 261 250 255 256 258 258 257 256 254 255 259 259 255 252 252 254 255 252 245 239 235 232 232 232 228 225 225 220 216 217 219 220 221 222 223 223 224 226 227 227 226 224 223 223 222 221 220 219 217 216 217 218 216 212 212 215 218 222 224 222 220 220 222 225
356 356 357 357 352 347 347 348 343 353 6 10 11 10 13 13 337 324 316 319 334 334 303 272 259 253 252 251 251 253 255 254 256 255 252 252 252 249 249 250 246 242 239 236 236 236 229 225 227 226 221 220 222 223 223 224 226 226 223 222 222 223 222 220 219 219 218 218 218 217 216 216 217 216 213 210 211 214 218 221 223 221 220 220 222 225
354 351 350 356 357 348 346 353 355 352 2 10 15 15 17 17 4 352 347 352 359 348 322 295 268 254 250 250 251 253 253 249 246 252 259 255 244 244 251 251 246 245 244 241 238 237 235 231 229 227 225 223 222 222 222 224 226 225 221 219 218 219 219 216 215 216 216 217 218 216 214 214 214 212 209 209 211 214 217 221 223 221 220 220 222 224
360 355 349 357 360 347 339 356 7 2 5 15 20 19 23 29 28 27 27 27 25 14 346 285 254 256 256 252 256 255 253 254 255 268 280 266 249 256 259 251 253 257 249 238 234 235 234 230 226 222 222 220 217 215 216 218 221 221 219 218 217 216 216 214 213 214 215 215 215 213 212 211 209 208 208 211 213 214 217 221 222 221 221 221 222 224
3 0 358 2 4 359 357 6 12 13 18 25 24 18 22 30 33 35 35 34 32 27 22 10 239 264 273 260 263 259 257 262 262 266 276 270 270 275 255 248 271 276 235 213 217 222 219 215 215 214 213 209 205 206 210 212 215 218 218 218 218 218 218 217 215 215 214 212 210 209 208 207 207 208 209 211 212 214 217 221 223 222 222 222 222 224
2 3 9 11 9 12 18 17 14 17 25 31 28 19 17 24 29 30 32 35 35 33 35 44 50 34 8 344 326 293 273 266 253 243 262 275 296 304 276 262 288 280 211 190 195 202 203 201 199 198 199 198 193 193 198 204 210 215 217 218 219 219 219 218 217 217 215 211 208 207 206 206 208 211 213 213 213 213 216 221 224 224 222 220 220 222
5 8 16 18 13 13 14 12 13 18 21 24 24 18 14 20 27 28 31 34 35 34 36 43 52 55 50 35 11 339 308 288 257 241 274 276 301 325 310 284 288 249 197 182 178 180 183 189 191 188 187 188 185 181 184 194 201 206 208 211 214 214 214 213 214 215 213 210 208 209 209 210 212 216 219 220 217 214 215 220 222 222 220 218 219 221
4 11 18 19 17 13 6 4 13 23 25 23 22 17 15 19 24 28 31 34 36 36 36 38 47 54 52 45 40 32 348 329 340 299 269 304 339 339 328 315 30 132 169 171 169 165 162 170 181 181 177 176 175 172 174 181 188 194 199 204 207 208 208 209 210 211 210 209 209 211 212 214 215 218 221 222 218 214 215 217 219 220 219 217 219 222
3 11 15 15 16 14 8 4 10 20 26 25 21 18 18 19 20 23 26 27 31 36 36 35 36 38 39 40 43 47 47 18 24 30 30 15 358 347 347 6 47 88 140 158 166 168 164 164 168 169 166 168 171 173 175 178 183 189 194 196 200 203 204 204 206 208 208 208 208 210 212 215 216 217 220 221 218 216 217 218 219 221 220 218 220 223
8 13 11 8 9 10 9 7 8 13 21 22 18 17 20 20 18 19 20 20 23 27 29 30 31 32 33 33 35 41 48 46 33 29 26 23 22 22 23 25 38 72 128 158 166 165 162 162 165 165 164 165 169 173 178 182 184 187 189 189 193 199 202 203 205 207 208 210 210 212 214 217 217 217 219 219 216 216 217 217 217 219 219 218 219 221
10 10 8 5 4 6 9 13 14 15 20 22 16 14 17 19 18 18 19 19 21 22 21 19 20 25 30 30 29 33 36 36 38 42 37 32 35 39 38 36 37 43 85 152 164 166 164 163 163 163 164 166 168 171 177 181 182 184 188 189 192 198 202 204 207 209 211 213 215 217 218 219 218 219 220 219 216 216 217 216 216 217 217 217 217 217
Height
3078 3079 3078 3078 3078 3077 3077 3076 3076 3076 3076 3076 3077 3076 3076 3075 3074 3074 3075 3075 3075 3075 3075 3075 3075 3076 3077 3078 3079 3081 3082 3081 3082 3086 3088 3090 3092 3095 3098 3101 3104 3107 3110 3114 3117 3120 3124 3127 3130 3131 3132 3135 3139 3140 3140 3143 3146 3148 3150 3152 3153 3155 3157 3159 3160 3162 3163 3164 3166 3167 3168 3170 3171 3172 3173 3174 3174 3175 3175 3176 3176 3177 3177 3177 3178 3179
3075 3076 3076 3076 3076 3075 3075 3074 3073 3073 3073 3074 3074 3074 3073 3072 3072 3072 3073 3073 3074 3073 3072 3073 3073 3073 3074 3074 3075 3076 3076 3076 3078 3081 3083 3085 3088 3090 3093 3096 3099 3103 3106 3109 3112 3115 3119 3122 3126 3128 3128 3131 3133 3136 3138 3141 3143 3145 3147 3149 3151 3153 3155 3157 3159 3160 3161 3163 3164 3165 3167 3168 3169 3170 3171 3172 3173 3173 3173 3174 3175 3175 3175 3176 3177 3177
3074 3074 3074 3074 3073 3072 3072 3072 3071 3071 3071 3071 3071 3071 3070 3069 3069 3069 3069 3070 3071 3071 3069 3070 3070 3070 3071 3071 3071 3072 3072 3073 3075 3077 3079 3081 3083 3085 3088 3091 3094 3098 3101 3104 3108 3111 3114 3117 3122 3125 3126 3127 3129 3131 3135 3138 3140 3142 3144 3146 3148 3150 3152 3155 3157 3158 3160 3161 3163 3164 3165 3166 3167 3168 3169 3170 3171 3171 3172 3172 3173 3174 3174 3175 3175 3176
3073 3072 3071 3070 3070 3069 3070 3070 3069 3069 3069 3068 3068 3068 3066 3067 3067 3066 3066 3067 3068 3068 3067 3068 3067 3066 3067 3067 3067 3068 3068 3070 3071 3073 3075 3076 3078 3080 3083 3087 3090 3093 3096 3100 3103 3107 3109 3112 3117 3121 3123 3124 3126 3129 3132 3135 3138 3140 3142 3144 3146 3148 3150 3152 3154 3156 3158 3159 3161 3162 3163 3164 3165 3166 3167 3168 3169 3169 3170 3170 3171 3172 3173 3173 3174 3175
3070 3070 3068 3067 3067 3067 3068 3068 3067 3067 3066 3065 3065 3065 3064 3064 3065 3065 3065 3065 3065 3064 3064 3066 3064 3061 3062 3062 3062 3064 3065 3066 3067 3068 3069 3070 3072 3075 3078 3081 3084 3088 3091 3095 3099 3102 3105 3108 3112 3117 3120 3122 3125 3128 3130 3133 3136 3138 3140 3142 3143 3145 3147 3150 3152 3154 3156 3157 3158 3159 3160 3161 3163 3164 3165 3166 3166 3167 3168 3168 3169 3170 3171 3172 3173 3174
3067 3067 3066 3065 3065 3065 3065 3065 3065 3065 3064 3063 3062 3062 3063 3063 3063 3064 3064 3064 3063 3060 3060 3062 3059 3054 3056 3057 3057 3060 3061 3062 3063 3064 3065 3066 3068 3071 3073 3076 3079 3082 3086 3090 3094 3098 3101 3104 3108 3112 3116 3118 3121 3125 3128 3130 3133 3135 3137 3139 3140 3142 3144 3147 3149 3151 3154 3155 3156 3156 3158 3159 3161 3162 3163 3164 3164 3165 3166 3167 3167 3168 3169 3170 3171 3172
3064 3063 3062 3063 3063 3063 3063 3062 3063 3063 3062 3061 3059 3059 3060 3061 3061 3061 3062 3061 3059 3057 3056 3057 3055 3050 3050 3051 3052 3055 3057 3058 3060 3060 3061 3063 3065 3066 3068 3071 3075 3078 3081 3086 3089 3093 3096 3099 3103 3107 3111 3114 3118 3122 3124 3127 3129 3132 3134 3136 3137 3139 3142 3144 3147 3149 3151 3152 3153 3155 3156 3157 3159 3160 3161 3162 3163 3164 3164 3165 3166 3166 3167 3168 3170 3171
3060 3060 3060 3060 3061 3061 3060 3060 3059 3060 3060 3059 3057 3057 3058 3059 3059 3058 3059 3058 3056 3055 3054 3054 3054 3051 3047 3047 3049 3051 3052 3053 3055 3057 3058 3060 3061 3063 3065 3067 3070 3074 3077 3081 3085 3088 3091 3094 3098 3102 3106 3110 3114 3117 3120 3123 3126 3128 3131 3133 3135 3136 3139 3141 3144 3147 3149 3150 3151 3153 3154 3155 3156 3158 3159 3160 3161 3162 3162 3163 3164 3164 3165 3167 3168 3169
3059 3059 3059 3059 3059 3058 3057 3057 3057 3057 3057 3056 3056 3055 3056 3057 3056 3056 3056 3054 3054 3053 3050 3050 3052 3049 3044 3044 3047 3048 3049 3050 3051 3053 3055 3057 3058 3060 3061 3062 3065 3069 3073 3077 3081 3084 3087 3090 3094 3098 3102 3106 3109 3113 3117 3120 3122 3125 3128 3130 3132 3133 3135 3138 3141 3144 3146 3148 3149 3150 3152 3153 3154 3155 3156 3158 3158 3159 3160 3161 3162 3162 3163 3165 3166 3167
3059 3059 3058 3057 3056 3055 3054 3055 3055 3054 3053 3054 3055 3054 3054 3054 3053 3053 3052 3051 3051 3049 3045 3046 3048 3045 3039 3040 3043 3044 3045 3046 3047 3049 3051 3053 3056 3057 3058 3059 3061 3065 3068 3073 3076 3080 3083 3086 3090 3094 3098 3101 3105 3109 3113 3116 3119 3121 3124 3126 3128 3130 3132 3135 3138 3141 3143 3145 3147 3148 3149 3151 3152 3153 3154 3155 3156 3157 3158 3159 3159 3160 3161 3163 3165 3166
3055 3056 3054 3052 3051 3051 3051 3052 3052 3052 3051 3052 3053 3052 3051 3050 3050 3050 3048 3049 3047 3042 3040 3042 3044 3042 3036 3035 3038 3039 3040 3042 3044 3045 3047 3050 3053 3054 3054 3054 3057 3060 3063 3068 3072 3075 3078 3082 3086 3089 3093 3096 3100 3104 3108 3111 3115 3118 3121 3123 3125 3128 3129 3132 3135 3138 3141 3143 3144 3146 3147 3148 3150 3151 3152 3153 3154 3154 3155 3156 3157 3159 3160 3161 3163 3164
3052 3051 3050 3047 3046 3047 3048 3048 3049 3049 3049 3049 3049 3049 3048 3046 3046 3045 3044 3045 3042 3035 3035 3037 3040 3040 3034 3031 3034 3036 3036 3039 3040 3042 3045 3047 3050 3051 3050 3051 3054 3057 3059 3063 3067 3071 3074 3077 3081 3084 3088 3092 3095 3098 3103 3107 3111 3115 3119 3121 3123 3124 3126 3129 3132 3135 3138 3140 3142 3143 3145 3146 3147 3149 3150 3151 3152 3152 3153 3154 3156 3157 3158 3160 3161 3162
3048 3047 3046 3045 3044 3044 3045 3045 3045 3045 3046 3046 3046 3047 3045 3042 3042 3041 3038 3038 3035 3030 3031 3033 3034 3033 3029 3029 3032 3033 3034 3036 3037 3039 3042 3044 3046 3047 3048 3049 3051 3053 3055 3058 3062 3066 3070 3072 3075 3079 3083 3087 3090 3094 3098 3103 3107 3111 3115 3117 3119 3122 3124 3126 3129 3132 3135 3138 3139 3141 3142 3144 3145 3147 3148 3149 3150 3150 3151 3153 3154 3155 3156 3158 3160 3161
3044 3042 3042 3043 3042 3041 3041 3042 3042 3042 3042 3042 3042 3042 3041 3038 3038 3037 3032 3030 3028 3026 3027 3030 3029 3026 3024 3026 3028 3029 3031 3032 3033 3035 3038 3040 3042 3044 3045 3046 3048 3050 3051 3054 3057 3061 3064 3068 3071 3075 3080 3083 3086 3090 3094 3099 3103 3106 3110 3113 3116 3118 3121 3123 3126 3129 3133 3135 3137 3138 3140 3141 3143 3145 3146 3147 3147 3147 3149 3150 3152 3153 3155 3156 3158 3159
3043 3041 3040 3040 3040 3038 3037 3038 3038 3039 3039 3038 3038 3039 3036 3034 3034 3031 3026 3025 3025 3023 3022 3023 3023 3021 3021 3022 3024 3025 3026 3028 3029 3031 3033 3035 3037 3039 3041 3043 3044 3046 3048 3050 3053 3056 3060 3065 3068 3071 3076 3079 3082 3086 3090 3095 3099 3102 3106 3109 3112 3115 3117 3120 3123 3126 3130 3132 3134 3136 3138 3139 3141 3143 3144 3144 3145 3145 3146 3148 3150 3151 3153 3154 3155 3156
3043 3041 3039 3038 3037 3036 3036 3036 3036 3037 3036 3034 3035 3035 3032 3030 3031 3028 3025 3026 3027 3025 3022 3020 3018 3017 3018 3019 3020 3022 3022 3023 3025 3027 3029 3031 3033 3035 3036 3038 3041 3042 3045 3048 3050 3053 3056 3061 3065 3068 3072 3076 3079 3082 3086 3091 3095 3098 3102 3106 3109 3112 3115 3118 3121 3123 3126 3129 3131 3133 3135 3137 3138 3140 3141 3142 3142 3143 3144 3146 3147 3149 3151 3152 3153 3154
3042 3039 3037 3035 3033 3033 3034 3034 3034 3033 3032 3031 3031 3029 3028 3029 3030 3029 3026 3027 3029 3027 3022 3019 3017 3017 3017 3015 3016 3018 3018 3019 3021 3023 3025 3026 3029 3031 3033 3034 3037 3039 3042 3044 3047 3049 3053 3057 3061 3064 3068 3072 3075 3079 3082 3086 3091 3095 3099 3103 3106 3109 3111 3114 3117 3120 3123 3125 3128 3130 3132 3134 3135 3137 3138 3140 3140 3141 3142 3143 3145 3147 3148 3150 3151 3152
3041 3035 3033 3033 3031 3030 3031 3031 3030 3029 3028 3028 3027 3026 3027 3028 3029 3028 3026 3026 3027 3024 3018 3016 3016 3015 3013 3010 3011 3013 3013 3015 3017 3019 3021 3023 3025 3028 3029 3030 3033 3036 3039 3041 3044 3047 3049 3052 3056 3059 3063 3068 3072 3075 3078 3083 3087 3092 3096 3099 3103 3105 3108 3110 3113 3117 3120 3122 3124 3127 3129 3131 3133 3134 3135 3137 3138 3139 3140 3141 3142 3144 3145 3147 3148 3149
3039 3032 3027 3029 3029 3027 3028 3028 3026 3024 3024 3025 3025 3025 3026 3026 3025 3025 3025 3023 3023 3020 3015 3013 3012 3011 3009 3007 3006 3007 3008 3011 3014 3016 3018 3020 3022 3023 3025 3027 3030 3033 3036 3038 3041 3044 3046 3049 3052 3056 3060 3064 3068 3071 3075 3079 3083 3087 3092 3095 3099 3102 3104 3107 3110 3113 3116 3118 3121 3124 3126 3128 3130 3131 3133 3134 3136 3136 3137 3139 3140 3141 3143 3145 3146 3147
3038 3033 3026 3024 3026 3025 3024 3024 3021 3020 3021 3023 3024 3024 3024 3023 3022 3022 3021 3019 3018 3016 3013 3011 3009 3008 3007 3006 3005 3004 3005 3007 3010 3012 3015 3017 3019 3020 3021 3023 3026 3029 3032 3035 3038 3040 3043 3046 3049 3053 3057 3061 3065 3068 3071 3075 3078 3083 3087 3091 3095 3098 3100 3103 3106 3108 3111 3114 3118 3121 3123 3125 3127 3128 3130 3132 3133 3134 3135 3136 3137 3139 3140 3142 3144 3145
3035 3032 3025 3022 3023 3022 3020 3018 3016 3017 3019 3020 3020 3019 3019 3020 3020 3019 3017 3016 3016 3013 3011 3011 3008 3004 3004 3004 3003 3003 3004 3005 3007 3010 3012 3015 3016 3018 3019 3021 3023 3026 3029 3032 3035 3037 3040 3043 3046 3050 3053 3057 3061 3065 3068 3071 3075 3079 3083 3086 3090 3094 3097 3099 3102 3104 3107 3111 3115 3117 3120 3122 3124 3125 3127 3129 3130 3131 3132 3134 3135 3136 3138 3140 3141 3142
3032 3029 3023 3021 3020 3017 3015 3014 3013 3014 3014 3015 3016 3015 3015 3016 3017 3016 3014 3013 3013 3011 3008 3010 3006 3001 3001 3002 3000 3001 3002 3003 3005 3007 3010 3012 3014 3015 3016 3018 3021 3023 3026 3029 3032 3034 3037 3040 3043 3046 3050 3054 3057 3061 3064 3067 3071 3075 3078 3082 3086 3089 3093 3096 3098 3101 3104 3107 3110 3114 3117 3119 3121 3122 3124 3126 3128 3129 3130 3131 3132 3134 3135 3137 3139 3140
3028 3025 3020 3018 3015 3012 3011 3012 3010 3009 3010 3012 3012 3012 3013 3014 3013 3012 3010 3009 3010 3008 3007 3009 3005 2999 3000 3000 2998 2998 3000 3002 3004 3006 3008 3011 3013 3013 3015 3017 3018 3021 3023 3026 3029 3032 3035 3037 3040 3044 3047 3050 3054 3057 3061 3064 3067 3071 3074 3078 3082 3086 3089 3092 3095 3098 3101 3104 3107 3110 3113 3115 3118 3120 3122 3124 3125 3126 3127 3128 3130 3131 3133 3135 3136 3138
3025 3022 3018 3014 3010 3007 3008 3008 3006 3005 3008 3008 3007 3008 3010 3010 3010 3010 3009 3008 3008 3005 3005 3006 3001 2997 2999 2999 2997 2998 3000 3001 3003 3005 3008 3010 3011 3013 3014 3016 3017 3019 3021 3023 3026 3029 3032 3035 3038 3041 3044 3047 3051 3054 3057 3060 3064 3068 3071 3075 3078 3082 3086 3089 3092 3095 3097 3100 3103 3106 3109 3112 3115 3117 3119 3121 3122 3123 3124 3126 3127 3129 3130 3132 3134 3135
3022 3020 3017 3014 3009 3005 3004 3004 3004 3004 3005 3003 3002 3004 3006 3006 3008 3008 3008 3008 3006 3003 3003 3002 2997 2995 2999 2998 2997 2998 3000 3001 3002 3004 3006 3009 3011 3012 3013 3015 3016 3018 3019 3021 3023 3026 3029 3032 3035 3038 3041 3044 3048 3051 3054 3057 3061 3064 3068 3071 3075 3078 3082 3086 3089 3091 3094 3097 3100 3103 3105 3108 3111 3114 3115 3118 3119 3120 3121 3123 3125 3126 3128 3130 3131 3133
3020 3018 3016 3014 3010 3006 3003 3002 3002 3002 3003 3001 3000 3001 3002 3003 3004 3005 3006 3006 3002 3001 3002 2999 2995 2996 2998 2998 2998 2999 3000 3002 3002 3002 3005 3008 3011 3012 3012 3013 3014 3016 3017 3019 3021 3024 3026 3029 3032 3035 3038 3042 3045 3048 3051 3054 3058 3061 3065 3068 3071 3075 3079 3082 3085 3088 3090 3093 3096 3099 3102 3105 3108 3110 3112 3114 3116 3117 3118 3120 3122 3124 3125 3127 3128 3130
3017 3014 3013 3012 3010 3007 3004 3002 3001 3000 3000 2999 2998 2998 2999 2999 3001 3003 3003 3000 2999 3000 2998 2995 2996 2998 2997 2998 2999 2999 2999 3002 3003 3004 3006 3008 3009 3010 3011 3011 3012 3014 3015 3017 3019 3021 3024 3026 3029 3032 3036 3039 3042 3045 3048 3051 3055 3058 3062 3065 3068 3072 3076 3078 3081 3084 3087 3090 3093 3096 3099 3102 3104 3107 3109 3111 3113 3114 3116 3118 3119 3121 3122 3124 3125 3127
3016 3013 3011 3010 3008 3006 3003 3001 3000 2999 2997 2996 2996 2995 2995 2995 2997 2999 2997 2997 3000 2999 2993 2993 2997 2997 2995 2997 2999 2999 2999 3001 3002 3003 3004 3006 3006 3006 3008 3009 3010 3012 3013 3015 3017 3019 3021 3023 3026 3029 3032 3036 3039 3042 3045 3049 3052 3055 3058 3062 3065 3069 3072 3075 3078 3081 3083 3086 3089 3092 3095 3098 3101 3103 3105 3108 3110 3112 3113 3115 3116 3118 3119 3120 3122 3124
3015 3012 3009 3008 3005 3003 3002 2999 2997 2996 2995 2994 2993 2993 2992 2992 2993 2993 2994 2996 2999 2995 2992 2994 2996 2994 2994 2997 2997 2998 2999 2999 2999 3000 3001 3002 3003 3004 3005 3006 3008 3010 3011 3013 3015 3016 3018 3020 3023 3025 3029 3032 3036 3039 3042 3045 3049 3052 3055 3058 3062 3065 3068 3071 3074 3077 3080 3082 3085 3088 3092 3095 3097 3099 3102 3104 3107 3109 3111 3112 3113 3114 3116 3117 3119 3121
3014 3011 3008 3007 3003 3000 2999 2997 2995 2995 2993 2992 2991 2990 2989 2989 2989 2990 2993 2995 2995 2994 2994 2995 2995 2993 2994 2995 2996 2998 2998 2998 2997 2997 2998 3000 3001 3002 3003 3004 3005 3007 3009 3011 3012 3013 3015 3017 3020 3022 3025 3028 3032 3035 3039 3042 3045 3048 3051 3055 3058 3061 3064 3067 3070 3073 3076 3078 3081 3085 3087 3090 3093 3095 3098 3101 3104 3106 3107 3108 3110 3111 3113 3115 3116 3118
3013 3010 3007 3006 3002 2998 2997 2996 2994 2993 2992 2991 2990 2989 2988 2987 2987 2988 2990 2992 2993 2993 2993 2995 2994 2991 2991 2993 2995 2996 2997 2997 2997 2997 2997 2998 2999 2999 3000 3001 3003 3004 3006 3008 3009 3011 3013 3015 3017 3019 3022 3025 3028 3032 3035 3039 3042 3045 3048 3051 3054 3057 3060 3063 3066 3069 3072 3075 3078 3080 3082 3086 3089 3091 3094 3097 3100 3103 3104 3105 3106 3108 3110 3112 3113 3115
3012 3009 3006 3005 3002 2998 2996 2994 2993 2992 2991 2989 2988 2987 2986 2985 2985 2986 2987 2989 2989 2989 2991 2993 2990 2986 2988 2992 2994 2994 2995 2996 2996 2996 2996 2997 2997 2997 2998 2998 2999 3001 3003 3005 3006 3008 3009 3012 3014 3016 3018 3021 3025 3028 3032 3035 3038 3041 3044 3047 3050 3053 3056 3059 3062 3065 3068 3071 3073 3075 3078 3082 3085 3087 3090 3093 3097 3099 3100 3101 3103 3105 3106 3108 3110 3112
3012 3008 3006 3004 3001 2997 2994 2993 2992 2991 2990 2987 2986 2985 2984 2984 2984 2984 2985 2985 2986 2987 2988 2988 2985 2985 2988 2992 2992 2992 2994 2994 2994 2995 2995 2995 2995 2994 2995 2995 2996 2998 2999 3001 3003 3004 3006 3008 3010 3013 3015 3018 3021 3024 3027 3031 3035 3037 3040 3043 3047 3050 3052 3055 3058 3061 3064 3067 3069 3072 3075 3078 3081 3083 3086 3090 3093 3095 3096 3098 3100 3101 3103 3105 3107 3109
3012 3009 3006 3004 3001 2996 2993 2991 2991 2990 2988 2985 2984 2984 2983 2982 2982 2982 2982 2983 2983 2984 2984 2983 2982 2984 2988 2989 2989 2990 2991 2991 2992 2992 2992 2991 2991 2991 2991 2992 2993 2994 2996 2997 2999 3000 3002 3003 3006 3008 3011 3014 3017 3020 3023 3027 3030 3034 3037 3040 3043 3046 3048 3051 3054 3057 3060 3062 3065 3068 3071 3074 3077 3079 3082 3086 3088 3090 3092 3094 3096 3098 3100 3102 3104 3106
3012 3009 3006 3004 3000 2995 2991 2991 2990 2988 2986 2984 2984 2982 2980 2980 2980 2979 2979 2981 2981 2981 2981 2980 2979 2981 2984 2986 2986 2987 2987 2987 2988 2987 2986 2986 2987 2987 2988 2988 2990 2991 2991 2993 2994 2996 2997 2999 3001 3003 3006 3009 3013 3016 3019 3022 3026 3029 3032 3035 3038 3041 3043 3046 3049 3052 3055 3057 3061 3064 3067 3070 3073 3075 3078 3081 3083 3086 3088 3090 3092 3094 3096 3099 3101 3103
3013 3010 3007 3003 2999 2994 2991 2990 2989 2985 2983 2983 2982 2980 2979 2978 2978 2978 2977 2977 2978 2979 2979 2978 2977 2978 2981 2982 2982 2983 2983 2983 2982 2981 2981 2983 2984 2984 2984 2984 2985 2986 2986 2988 2989 2991 2993 2994 2996 2999 3001 3004 3008 3011 3014 3017 3021 3024 3027 3030 3033 3035 3039 3042 3044 3046 3049 3052 3056 3059 3062 3066 3068 3070 3073 3076 3079 3081 3083 3086 3088 3090 3093 3096 3098 3100
3015 3012 3008 3003 2999 2995 2991 2988 2986 2983 2982 2983 2981 2980 2979 2977 2977 2977 2976 2975 2976 2977 2977 2976 2976 2977 2978 2979 2979 2980 2980 2979 2977 2976 2978 2980 2980 2980 2980 2980 2981 2981 2982 2983 2984 2986 2988 2990 2991 2994 2996 2999 3003 3006 3009 3013 3016 3019 3022 3025 3027 3030 3033 3036 3038 3041 3043 3047 3051 3055 3058 3061 3063 3065 3068 3071 3074 3077 3079 3082 3084 3086 3089 3092 3094 3096
3016 3012 3008 3004 3000 2996 2991 2987 2984 2982 2983 2982 2980 2978 2977 2976 2975 2976 2975 2973 2973 2974 2974 2974 2974 2974 2975 2976 2976 2976 2976 2975 2973 2973 2976 2976 2975 2976 2976 2976 2977 2977 2978 2979 2980 2982 2983 2985 2987 2989 2992 2994 2997 3001 3004 3008 3011 3014 3017 3019 3021 3025 3028 3030 3033 3036 3039 3042 3046 3050 3053 3056 3058 3061 3064 3067 3070 3073 3076 3078 3080 3083 3086 3089 3091 3093
3016 3012 3009 3007 3002 2997 2993 2990 2987 2985 2985 2982 2979 2977 2976 2975 2975 2975 2975 2973 2972 2972 2972 2971 2971 2971 2971 2972 2972 2972 2972 2970 2969 2970 2971 2971 2971 2972 2972 2972 2973 2973 2973 2974 2975 2977 2978 2980 2982 2985 2987 2989 2992 2996 3000 3003 3006 3008 3011 3013 3016 3020 3022 3024 3027 3031 3035 3038 3042 3046 3049 3051 3054 3057 3060 3063 3066 3069 3072 3074 3076 3079 3082 3085 3087 3089
3014 3011 3009 3007 3003 2998 2995 2992 2989 2988 2987 2984 2980 2977 2976 2974 2974 2975 2974 2972 2970 2970 2969 2969 2969 2968 2968 2968 2969 2969 2968 2966 2966 2968 2968 2968 2969 2969 2969 2968 2969 2968 2968 2969 2970 2972 2973 2975 2977 2980 2982 2984 2987 2991 2995 2998 3000 3002 3004 3007 3011 3014 3016 3019 3023 3027 3031 3035 3038 3041 3044 3047 3050 3053 3056 3059 3063 3066 3068 3070 3073 3076 3078 3080 3083 3085
3015 3012 3010 3008 3004 2999 2995 2992 2990 2989 2988 2985 2982 2979 2977 2975 2975 2975 2973 2970 2968 2967 2966 2965 2966 2965 2965 2965 2965 2964 2964 2964 2964 2965 2965 2965 2965 2965 2965 2964 2964 2963 2963 2964 2965 2967 2968 2969 2972 2974 2977 2979 2983 2986 2989 2992 2995 2997 2999 3002 3005 3008 3012 3015 3019 3023 3027 3030 3033 3036 3040 3043 3046 3049 3053 3056 3060 3062 3063 3066 3069 3072 3074 3076 3079 3081
3017 3015 3012 3010 3006 3001 2997 2994 2991 2990 2989 2985 2983 2981 2978 2977 2977 2975 2971 2968 2965 2962 2961 2962 2962 2962 2962 2962 2961 2962 2962 2962 2962 2962 2962 2962 2962 2961 2961 2960 2959 2958 2958 2959 2961 2961 2962 2964 2966 2969 2972 2975 2977 2981 2984 2986 2989 2991 2994 2997 3000 3004 3008 3012 3015 3019 3022 3026 3029 3032 3035 3039 3042 3045 3049 3053 3055 3057 3059 3063 3066 3068 3070 3073 3075 3077
3022 3019 3016 3012 3008 3004 3000 2996 2994 2993 2992 2987 2982 2980 2978 2978 2976 2973 2969 2966 2963 2960 2959 2959 2958 2959 2959 2958 2958 2959 2959 2960 2960 2960 2959 2959 2958 2957 2956 2955 2955 2954 2954 2954 2955 2956 2957 2959 2962 2964 2967 2970 2972 2975 2978 2981 2983 2986 2989 2993 2997 3002 3005 3008 3012 3015 3019 3022 3025 3028 3031 3035 3039 3042 3046 3049 3051 3053 3056 3060 3062 3064 3067 3069 3071 3073
3025 3022 3020 3016 3012 3009 3005 3002 3002 3001 2997 2991 2986 2984 2982 2979 2976 2972 2968 2965 2961 2958 2956 2955 2955 2956 2957 2956 2956 2957 2957 2958 2958 2958 2956 2955 2954 2953 2952 2952 2952 2950 2947 2947 2949 2951 2952 2954 2957 2960 2962 2964 2967 2970 2973 2976 2979 2982 2986 2991 2995 2999 3002 3005 3009 3012 3015 3019 3022 3025 3029 3032 3036 3039 3043 3046 3048 3050 3053 3056 3058 3061 3063 3065 3067 3069
3028 3025 3023 3020 3017 3014 3011 3009 3007 3004 2999 2995 2991 2988 2984 2980 2976 2973 2970 2965 2960 2957 2954 2953 2954 2956 2956 2956 2956 2956 2956 2956 2955 2954 2953 2952 2952 2952 2950 2950 2948 2945 2941 2942 2945 2947 2948 2950 2952 2954 2956 2959 2962 2966 2970 2973 2977 2981 2985 2989 2993 2996 2999 3003 3006 3009 3012 3015 3018 3022 3026 3029 3033 3036 3040 3042 3043 3046 3050 3052 3055 3057 3059 3061 3063 3065
3030 3027 3024 3022 3020 3017 3014 3012 3009 3005 3001 2997 2993 2990 2986 2981 2977 2974 2970 2966 2963 2960 2956 2955 2956 2957 2957 2957 2956 2956 2955 2953 2952 2952 2952 2952 2952 2951 2949 2947 2944 2940 2938 2939 2940 2941 2943 2945 2948 2950 2953 2955 2958 2962 2967 2971 2975 2980 2984 2987 2990 2994 2997 3000 3003 3006 3009 3012 3015 3019 3022 3026 3030 3033 3036 3037 3039 3042 3046 3049 3051 3054 3056 3058 3059 3060
3029 3027 3025 3023 3020 3017 3014 3012 3010 3005 3001 2997 2994 2991 2987 2983 2979 2975 2972 2969 2967 2963 2958 2956 2957 2957 2957 2957 2956 2955 2954 2953 2952 2951 2950 2950 2950 2949 2948 2946 2943 2940 2938 2938 2938 2938 2941 2944 2946 2948 2950 2952 2955 2958 2964 2969 2974 2978 2981 2983 2987 2990 2993 2996 2999 3002 3005 3009 3013 3016 3020 3023 3026 3029 3032 3035 3037 3040 3043 3046 3048 3050 3052 3053 3054 3056
3028 3026 3024 3023 3021 3018 3016 3014 3011 3007 3004 3000 2995 2992 2988 2984 2981 2978 2975 2973 2971 2967 2963 2960 2958 2957 2957 2956 2955 2954 2954 2953 2952 2951 2949 2948 2948 2947 2946 2945 2943 2941 2940 2939 2939 2940 2941 2944 2947 2949 2949 2952 2954 2957 2961 2966 2971 2974 2977 2980 2983 2986 2989 2992 2995 2998 3002 3006 3009 3013 3016 3019 3021 3024 3027 3030 3033 3035 3039 3042 3043 3045 3047 3049 3050 3052
3029 3027 3025 3023 3021 3019 3017 3014 3010 3007 3004 3000 2997 2994 2991 2987 2984 2981 2978 2976 2973 2970 2967 2964 2961 2959 2958 2956 2955 2954 2954 2954 2953 2951 2949 2947 2947 2946 2945 2944 2943 2942 2941 2941 2942 2941 2941 2943 2946 2948 2950 2953 2955 2957 2960 2964 2968 2971 2974 2977 2980 2984 2987 2990 2993 2995 2999 3003 3006 3009 3012 3014 3017 3020 3023 3026 3028 3031 3035 3038 3040 3042 3044 3046 3047 3049
3030 3027 3026 3024 3021 3018 3016 3013 3010 3007 3004 3001 2998 2996 2994 2990 2987 2984 2981 2978 2975 2972 2970 2968 2966 2964 2962 2959 2956 2953 2953 2953 2953 2951 2950 2949 2948 2947 2946 2944 2943 2942 2943 2943 2944 2943 2942 2943 2944 2946 2948 2951 2953 2957 2960 2963 2966 2969 2972 2975 2978 2982 2985 2988 2991 2993 2996 3000 3003 3006 3008 3010 3014 3017 3020 3022 3025 3028 3031 3034 3036 3038 3040 3042 3044 3046
3030 3028 3026 3024 3022 3019 3017 3014 3012 3010 3007 3005 3002 2999 2997 2994 2991 2987 2984 2981 2978 2975 2973 2971 2969 2966 2964 2962 2959 2957 2955 2954 2953 2952 2952 2951 2950 2949 2947 2945 2944 2944 2944 2945 2946 2946 2945 2945 2946 2946 2947 2949 2952 2955 2958 2961 2964 2968 2971 2973 2976 2979 2982 2985 2988 2990 2993 2996 2998 3001 3004 3007 3011 3014 3017 3019 3022 3024 3026 3029 3031 3033 3035 3037 3039 3041